SKYSAT-C9

Last updated on Fri Oct 04 2024 00:02:26 GMT+0000 (Coordinated Universal Time)

1 42989U 17068C 24277.31136308 .00030936 00000+0 10226-2 0 9994 2 42989 97.3723 40.9587 0006505 253.6891 106.3635 15.31289086387328
UTC large
Height (km)
Speed (km/s)
/
Latitude / Longitude
Inclination (degrees)
Orbital Period (minutes)
Azimuth
Elevation
Range (km)
Doppler Factor

Next 0 passes for location: London (51.5072 / 0.1276)

Sorry there are no passes over London.